Springfield Beckley Municipal Airport
KSGH : now visible

Aeroporto :











RITROVATECI SU...

 
LOGIN :

Iscrizione | Disclaimer

   EN    FR    IT 

 









Sommario :    VFR   VFR Marginale   IFR   IFR Intensivo   IFR Molto Intensivo
Visibilità : 
Base nubi : 
>= 8 km
>= 3000ft
5 / 8 km
1000 / 3000 ft
1500m / 5 km
500 / 1000 ft
800 / 1500m
200 / 500 ft
< 800m
< 200 ft
Simboli :   Temporali  Nebbia  Neve Forte  Precipitazioni Forti  Vento > 20 kt






- Altitudine del aeroporto : 1051 ft


KSGH - Springfield Beckley Municipal

ULTIMO METAR :
  • 250656Z AUTO 09006KT 3SM -RA BR OVC003 04/04 A2973 RMK AO2 RAB13 SLP076 T00440044 PNO $

METARs OBSOLETI :
  • 250556Z AUTO 10008KT 7SM OVC003 04/04 A2975 RMK AO2 RAE54 SLP081 6//// T00440044 10044 20044 56009 PNO $
  • 250456Z AUTO 11008KT 9SM -RA OVC005 04/04 A2975 RMK AO2 RAB44 SLP083 T00440044 PNO $
  • 250428Z AUTO 10010KT 10SM OVC005 04/04 A2974 RMK AO2 CIG 004V008 PNO $

TAF N/A



MetMap, La meteo Aeronautica in un colpo d'occhio ! - Copyright ORBIFLY Dicembre 2007 - Disclaimer

ORBIFLY MET'MAP TEAM :

Programmazione e sviluppo : Alexandra Zaïnal
Concezione : Baudouin d'Aumeries
Aiuto per la programmazione : Marc-Olivier Méhu
Supporto tecnico e logistico : Manuel Goepfert
Aiuto per la traduzione : Arnaldo La Scala

Contatto : metmap@orbifly.com




FONTI E CREDITI :

   NOAA       Earth
Advisory